Weather History for Juliana Airport, Saint Maarten, Saint Maartin

Change the Weather History Date:

Monday, February 24, 2014

  Actual Average Record
Temperature  
Mean Temperature 78 °F -  
Max Temperature 82 °F 82 °F - ()
Min Temperature 74 °F 72 °F - ()
Cooling Degree Days 13    
Growing Degree Days 28 (Base 50)    
Moisture  
Dew Point 67 °F    
Average Humidity 68    
Maximum Humidity 78    
Minimum Humidity 55    
Precipitation  
Precipitation 0.00 in 0.06 in - ()
Sea Level Pressure  
Sea Level Pressure 30.02 in    
Wind  
Wind Speed 10 mph ()    
Max Wind Speed 17 mph    
Max Gust Speed -    
Visibility 6.1 miles    
Events Rain    
T = Trace of Precipitation, MM = Missing Value Source: Averaged Metar Reports

Daily Weather History Graph

Daily Weather History Graph

Search for Another Location

Airport:

Trip Planner

Search our weather history database for the weather conditions in past years. The results will help you decide how hot, cold, wet, or windy it might be!

Date:

Astronomy

Feb. 24, 2014 Rise Set
Actual Time 6:34 AM AST 6:17 PM AST
Civil Twilight 6:12 AM AST 6:39 PM AST
Nautical Twilight 5:47 AM AST 7:04 PM AST
Astronomical Twilight 5:21 AM AST 7:29 PM AST
Moon 2:03 AM AST (2/24) 1:38 PM AST (2/24)
Length of Visible Light 12h 26m
Length of Day
11h 42m
Waning Crescent, 29% of the Moon is Illuminated
Feb 24
Waning Crescent
Mar 1
New
Mar 8
First Quarter
Mar 16
Full
Mar 23
Last Quarter

Hourly Weather History & Observations

Time (AST) Temp. Heat Index Dew Point Humidity Pressure Visibility Wind Dir Wind Speed Gust Speed Precip Events Conditions
12:00 AM 75.2 °F - 68.0 °F 78% 30.04 in 6.2 mi ENE 10.4 mph - N/A   Scattered Clouds
1:00 AM 75.2 °F - 66.2 °F 73% 30.04 in 6.2 mi East 11.5 mph - N/A   Partly Cloudy
2:00 AM 75 °F - 65 °F 64% 30.02 in 22 mi East 11.5 mph - -   Partly Cloudy
2:00 AM 75.2 °F - 66.2 °F 73% 30.01 in 6.2 mi East 10.4 mph - N/A   Partly Cloudy
3:00 AM 75.2 °F - 66.2 °F 73% 30.01 in 6.2 mi East 10.4 mph - N/A   Partly Cloudy
4:00 AM 75.2 °F - 66.2 °F 73% 29.98 in 6.2 mi East 10.4 mph - N/A   Mostly Cloudy
5:00 AM 75 °F - 67 °F 68% 30.00 in 22 mi East 12.7 mph - - Rain Light Rain Showers
5:00 AM 75.2 °F - 66.2 °F 73% 29.98 in 6.2 mi East 12.7 mph - N/A   Partly Cloudy
6:00 AM 75.2 °F - 66.2 °F 73% 30.01 in 6.2 mi East 10.4 mph - N/A   Scattered Clouds
7:00 AM 75.2 °F - 66.2 °F 73% 30.01 in 6.2 mi East 10.4 mph - N/A   Partly Cloudy
8:00 AM 77 °F - 67 °F 63% 30.06 in 31 mi East 12.7 mph - -   Partly Cloudy
8:00 AM 77.0 °F - 66.2 °F 69% 30.04 in 6.2 mi East 12.7 mph - N/A   Partly Cloudy
9:00 AM 78.8 °F - 66.2 °F 65% 30.06 in 6.2 mi East 12.7 mph - N/A   Partly Cloudy
10:00 AM 80.6 °F 82.7 °F 66.2 °F 61% 30.06 in 6.2 mi East 12.7 mph - N/A   Scattered Clouds
10:46 AM 78.8 °F - 66.2 °F 65% 30.06 in 3.1 mi East 17.3 mph - N/A   Mostly Cloudy
11:00 AM 78 °F - 69 °F 67% 30.08 in 6 mi East 9.2 mph - - Rain Light Rain Showers
11:00 AM 78.8 °F - 69.8 °F 74% 30.06 in 6.2 mi East 10.4 mph - N/A   Scattered Clouds
12:00 PM 80.6 °F 83.2 °F 68.0 °F 65% 30.04 in 6.2 mi ESE 13.8 mph - N/A   Mostly Cloudy
1:00 PM 82.4 °F 84.6 °F 66.2 °F 58% 30.01 in 6.2 mi ESE 9.2 mph - N/A   Partly Cloudy
2:00 PM 81 °F - 67 °F 55% 30.01 in 22 mi East 11.5 mph - -   Partly Cloudy
2:00 PM 80.6 °F 83.2 °F 68.0 °F 65% 30.01 in 6.2 mi East 11.5 mph - N/A   Scattered Clouds
3:00 PM 80.6 °F 82.7 °F 66.2 °F 61% 29.98 in 6.2 mi East 10.4 mph - N/A   Scattered Clouds
4:00 PM 80.6 °F 82.7 °F 66.2 °F 61% 29.98 in 6.2 mi East 11.5 mph - N/A   Scattered Clouds
5:00 PM 78 °F - 69 °F 66% 30.00 in 22 mi East 10.4 mph - - Rain Light Rain Showers
5:00 PM 78.8 °F - 68.0 °F 69% 29.98 in 6.2 mi East 10.4 mph - N/A Rain Light Rain Showers
6:00 PM 78.8 °F - 68.0 °F 69% 29.98 in 6.2 mi East 8.1 mph - N/A   Partly Cloudy
7:00 PM 77.0 °F - 66.2 °F 69% 30.01 in 6.2 mi East 9.2 mph - N/A   Partly Cloudy
8:00 PM 77 °F - 67 °F 64% 30.03 in 22 mi East 11.5 mph - -   Partly Cloudy
8:00 PM 77.0 °F - 66.2 °F 69% 30.01 in 6.2 mi East 10.4 mph - N/A   Partly Cloudy
9:00 PM 77.0 °F - 68.0 °F 74% 30.04 in 6.2 mi East 10.4 mph - N/A   Scattered Clouds
10:00 PM 77.0 °F - 68.0 °F 74% 30.04 in 6.2 mi East 10.4 mph - N/A   Scattered Clouds
11:00 PM 77 °F - 68 °F 66% 30.04 in 22 mi ESE 9.2 mph - -   Partly Cloudy
11:00 PM 77.0 °F - 68.0 °F 74% 30.04 in 6.2 mi ESE 9.2 mph - N/A   Scattered Clouds